Evansville, IN

4:35 AM CST on November 25, 2017 (GMT -0600)
Evansville Regional

Weather History for KEVV - November, 2010

Change the Weather History Date:

Sunday, November 7, 2010

  Actual Average Record
Temperature  
Mean Temperature 44 °F 50 °F  
Max Temperature 62 °F 61 °F 80 °F (1980)
Min Temperature 25 °F 40 °F 20 °F (1971)
Degree Days  
Heating Degree Days 21 15  
Month to date heating degree days 130 97  
Since 1 July heating degree days 323 400  
Cooling Degree Days 0 0  
Month to date cooling degree days 0 0  
Year to date cooling degree days 1902 1395  
Moisture  
Dew Point 24 °F    
Average Humidity 51    
Maximum Humidity 81    
Minimum Humidity 21    
Precipitation  
Precipitation 0.00 in 0.13 in 3.08 in (1996)
Month to date precipitation 0.07 0.92  
Year to date precipitation 22.59 38.14  
Snow  
Snow 0.00 in 0.00 in 1.00 in (1991)
Month to date snowfall 0.0 0.0  
Since 1 July snowfall 0.0 0.2  
Since 1 September snowfall 0.0 0.2  
Snow Depth 0.00 in    
Sea Level Pressure  
Sea Level Pressure 30.36 in    
Wind  
Wind Speed 5 mph (SSW)    
Max Wind Speed 15 mph    
Max Gust Speed 20 mph    
Visibility 9 miles    
Events      
T = Trace of Precipitation, MM = Missing Value Source: NWS Daily Summary

Daily Weather History Graph

Daily Weather History Graph

Search for Another Location

Airport or City:

Trip Planner

Search our weather history database for the weather conditions in past years. The results will help you decide how hot, cold, wet, or windy it might be!

Date:

Astronomy

Nov. 07, 2010 Rise Set
Actual Time 6:22 AM CST 4:44 PM CST
Civil Twilight 5:54 AM CST 5:12 PM CST
Nautical Twilight 5:23 AM CST 5:43 PM CST
Astronomical Twilight 4:52 AM CST 6:14 PM CST
Moon 8:05 AM CST (11/7) 5:46 PM CST (11/7)
Length of Visible Light 11h 17m
Length of Day
10h 22m
Waxing Crescent, 3% of the Moon is Illuminated
Nov 7
Waxing Crescent
Nov 13
First Quarter
Nov 21
Full
Nov 28
Last Quarter
Dec 5
New

Hourly Weather History & Observations

Time (CST) Temp. Windchill Dew Point Humidity Pressure Visibility Wind Dir Wind Speed Gust Speed Precip Events Conditions
12:54 AM 28.0 °F - 23.0 °F 81% 30.45 in 10.0 mi Calm Calm - N/A   Clear
1:54 AM 28.9 °F - 23.0 °F 78% 30.46 in 10.0 mi Calm Calm - N/A   Clear
1:54 AM 28.0 °F - 21.9 °F 78% 30.45 in 10.0 mi Calm Calm - N/A   Clear
2:54 AM 28.9 °F - 23.0 °F 78% 30.46 in 10.0 mi Calm Calm - N/A   Clear
3:54 AM 28.9 °F - 21.9 °F 75% 30.46 in 10.0 mi Calm Calm - N/A   Clear
4:54 AM 26.1 °F - 21.0 °F 81% 30.47 in 10.0 mi Calm Calm - N/A   Clear
5:54 AM 26.1 °F - 21.9 °F 84% 30.47 in 10.0 mi Calm Calm - N/A   Clear
6:54 AM 28.0 °F - 23.0 °F 81% 30.48 in 10.0 mi Calm Calm - N/A   Clear
7:54 AM 37.4 °F - 26.6 °F 65% 30.48 in 10.0 mi Calm Calm - N/A   Clear
8:54 AM 45.0 °F 40.6 °F 26.1 °F 48% 30.47 in 10.0 mi SSW 8.1 mph - N/A   Clear
9:54 AM 48.9 °F - 25.0 °F 39% 30.45 in 10.0 mi SSW 11.5 mph - N/A   Clear
10:54 AM 54.0 °F - 24.1 °F 31% 30.43 in 10.0 mi SSW 10.4 mph - N/A   Clear
11:54 AM 57.0 °F - 23.0 °F 27% 30.39 in 10.0 mi SW 12.7 mph 17.3 mph N/A   Clear
12:54 PM 59.0 °F - 24.1 °F 26% 30.34 in 6.0 mi South 9.2 mph - N/A   Haze
1:54 PM 61.0 °F - 23.0 °F 23% 30.31 in 10.0 mi SSW 12.7 mph - N/A   Clear
2:54 PM 62.1 °F - 23.0 °F 22% 30.29 in 10.0 mi South 6.9 mph - N/A   Clear
3:54 PM 60.1 °F - 23.0 °F 24% 30.27 in 6.0 mi SSW 10.4 mph - N/A   Haze
4:54 PM 57.0 °F - 23.0 °F 27% 30.25 in 9.0 mi South 8.1 mph - N/A   Clear
5:54 PM 54.0 °F - 24.1 °F 31% 30.25 in 8.0 mi SSW 8.1 mph - N/A   Clear
6:54 PM 52.0 °F - 25.0 °F 35% 30.24 in 7.0 mi SSW 8.1 mph - N/A   Clear
7:54 PM 46.9 °F - 26.1 °F 44% 30.22 in 6.0 mi SW 4.6 mph - N/A   Haze
8:54 PM 46.9 °F - 26.1 °F 44% 30.21 in 6.0 mi SSW 3.5 mph - N/A   Haze
9:54 PM 46.0 °F 43.9 °F 26.1 °F 46% 30.19 in 8.0 mi SSW 4.6 mph - N/A   Clear
10:54 PM 45.0 °F - 26.1 °F 48% 30.18 in 7.0 mi Calm Calm - N/A   Clear